When you browse on this site, cookies collect data to enhance your experience and personalize the content and advertising you see.
Visit our Privacy Policy to learn more. By continuing to use the site, you agree to this use of cookies and data.
  • In Hungary
  • List of Countries
  • For 7 days
  • Water Temperature
  • Satellite Maps
  • Weather Map
  • News
  • Weather Widgets
  • user-avatar
    Login

    Hourly Weather Llucmajor

    Today, 17 November, Saturday

    Time Temperature Precipitation Wind Pressure Humidity
    00:00 +14°C° 0 mm 4 mps 750 mmHg 90%
    01:00 +14°C° 0 mm 4 mps 749 mmHg 89%
    02:00 +14°C° 0 mm 4 mps 749 mmHg 89%
    03:00 +14°C° 0 mm 4 mps 749 mmHg 88%
    04:00 +14°C° 0 mm 4 mps 748 mmHg 88%
    05:00 +14°C° 0 mm 4 mps 748 mmHg 87%
    06:00 +13°C° 0 mm 4 mps 748 mmHg 87%
    07:00 +14°C° 0 mm 4 mps 748 mmHg 82%
    08:00 +15°C° 0 mm 4 mps 748 mmHg 77%
    09:00 +17°C° 0 mm 4 mps 748 mmHg 73%
    10:00 +18°C° 0 mm 4 mps 748 mmHg 69%
    11:00 +18°C° 0 mm 4 mps 748 mmHg 66%
    12:00 +19°C° 0 mm 4 mps 747 mmHg 62%
    13:00 +18°C° 0.1 mm 4 mps 747 mmHg 65%
    14:00 +18°C° 0.1 mm 4 mps 747 mmHg 67%
    15:00 +17°C° 0.1 mm 4 mps 746 mmHg 70%
    16:00 +15°C° 0.1 mm 4 mps 746 mmHg 73%
    17:00 +15°C° 0.1 mm 4 mps 746 mmHg 76%
    18:00 +14°C° 0.1 mm 4 mps 746 mmHg 80%
    19:00 +13°C° 0 mm 4 mps 746 mmHg 80%
    20:00 +13°C° 0 mm 4 mps 746 mmHg 81%
    21:00 +13°C° 0 mm 4 mps 746 mmHg 82%
    22:00 +13°C° 0 mm 4 mps 746 mmHg 82%
    23:00 +13°C° 0 mm 4 mps 746 mmHg 81%

    Tomorrow, 18 November, Sunday

    Time Temperature Precipitation Wind Pressure Humidity
    00:00 +13°C° 0 mm 4 mps 745 mmHg 81%
    01:00 +13°C° 0 mm 4 mps 745 mmHg 81%
    02:00 +13°C° 0 mm 4 mps 745 mmHg 82%
    03:00 +12°C° 0 mm 4 mps 744 mmHg 83%
    04:00 +12°C° 0 mm 4 mps 744 mmHg 83%
    05:00 +13°C° 0 mm 5 mps 744 mmHg 84%
    06:00 +13°C° 0 mm 5 mps 744 mmHg 84%
    07:00 +13°C° 0 mm 5 mps 744 mmHg 81%
    08:00 +14°C° 0 mm 6 mps 744 mmHg 77%
    09:00 +15°C° 0 mm 6 mps 745 mmHg 74%
    10:00 +16°C° 0 mm 7 mps 744 mmHg 73%
    11:00 +16°C° 0 mm 7 mps 744 mmHg 71%
    12:00 +16°C° 0 mm 8 mps 744 mmHg 70%
    13:00 +16°C° 0 mm 8 mps 744 mmHg 72%
    14:00 +16°C° 0 mm 8 mps 743 mmHg 73%
    15:00 +16°C° 0 mm 8 mps 743 mmHg 74%
    16:00 +15°C° 0 mm 8 mps 743 mmHg 77%
    17:00 +15°C° 0 mm 8 mps 743 mmHg 79%
    18:00 +15°C° 0 mm 8 mps 743 mmHg 81%
    19:00 +15°C° 0.1 mm 8 mps 742 mmHg 82%
    20:00 +15°C° 0.1 mm 8 mps 742 mmHg 82%
    21:00 +15°C° 0.1 mm 7 mps 742 mmHg 83%
    22:00 +14°C° 0 mm 7 mps 742 mmHg 84%
    23:00 +14°C° 0 mm 7 mps 741 mmHg 84%

    Day after tomorrow, 19 November, Monday

    Time Temperature Precipitation Wind Pressure Humidity
    00:00 +14°C° 0 mm 7 mps 740 mmHg 85%
    01:00 +14°C° 0.5 mm 7 mps 740 mmHg 86%
    02:00 +14°C° 0.5 mm 7 mps 739 mmHg 86%
    03:00 +14°C° 0.5 mm 6 mps 739 mmHg 87%
    04:00 +14°C° 1.8 mm 6 mps 738 mmHg 88%
    05:00 +14°C° 1.8 mm 5 mps 738 mmHg 89%
    06:00 +14°C° 1.8 mm 5 mps 737 mmHg 90%
    07:00 +14°C° 2.2 mm 5 mps 737 mmHg 90%
    08:00 +14°C° 2.2 mm 5 mps 737 mmHg 90%
    09:00 +14°C° 2.2 mm 5 mps 737 mmHg 90%
    10:00 +14°C° 1.9 mm 5 mps 736 mmHg 90%
    11:00 +14°C° 1.9 mm 6 mps 736 mmHg 89%
    12:00 +14°C° 1.9 mm 7 mps 735 mmHg 88%
    13:00 +12°C° 2.6 mm 8 mps 735 mmHg 88%
    14:00 +11°C° 2.6 mm 9 mps 734 mmHg 88%
    15:00 +11°C° 2.6 mm 10 mps 734 mmHg 88%
    16:00 +10°C° 2.3 mm 9 mps 734 mmHg 87%
    17:00 +10°C° 2.3 mm 9 mps 734 mmHg 86%
    18:00 +10°C° 2.3 mm 9 mps 734 mmHg 85%
    19:00 +10°C° 0.6 mm 8 mps 734 mmHg 84%
    20:00 +10°C° 0.6 mm 7 mps 734 mmHg 82%
    21:00 +10°C° 0.6 mm 6 mps 734 mmHg 81%
    22:00 +10°C° 0.1 mm 6 mps 734 mmHg 81%
    23:00 +10°C° 0.1 mm 5 mps 734 mmHg 82%

    20 November, Tuesday

    Time Temperature Precipitation Wind Pressure Humidity
    00:00 +10°C° 0.1 mm 5 mps 734 mmHg 82%
    01:00 +10°C° 0 mm 5 mps 734 mmHg 82%
    02:00 +12°C° 0 mm 5 mps 734 mmHg 82%
    03:00 +11°C° 0 mm 6 mps 734 mmHg 82%
    04:00 +11°C° 0 mm 6 mps 735 mmHg 80%
    05:00 +11°C° 0 mm 6 mps 735 mmHg 78%
    06:00 +11°C° 0 mm 7 mps 735 mmHg 76%
    07:00 +11°C° 0.2 mm 7 mps 736 mmHg 75%
    08:00 +13°C° 0.2 mm 6 mps 736 mmHg 73%
    09:00 +14°C° 0.2 mm 6 mps 737 mmHg 72%
    10:00 +14°C° 0.2 mm 6 mps 737 mmHg 69%
    11:00 +14°C° 0.2 mm 6 mps 737 mmHg 65%
    12:00 +14°C° 0.2 mm 6 mps 737 mmHg 62%
    13:00 +14°C° 0 mm 5 mps 737 mmHg 61%
    14:00 +14°C° 0 mm 4 mps 737 mmHg 61%
    15:00 +14°C° 0 mm 4 mps 738 mmHg 61%
    16:00 +14°C° 0.1 mm 4 mps 738 mmHg 66%
    17:00 +14°C° 0.1 mm 5 mps 738 mmHg 71%
    18:00 +13°C° 0.1 mm 6 mps 738 mmHg 76%
    19:00 +14°C° 0.3 mm 7 mps 739 mmHg 75%
    20:00 +14°C° 0.3 mm 7 mps 739 mmHg 75%
    21:00 +13°C° 0.3 mm 8 mps 739 mmHg 74%
    22:00 +13°C° 0.1 mm 8 mps 740 mmHg 74%
    23:00 +14°C° 0.1 mm 7 mps 740 mmHg 74%

    21 November, Wednesday

    Time Temperature Precipitation Wind Pressure Humidity
    00:00 +14°C° 0.1 mm 7 mps 740 mmHg 74%
    01:00 +14°C° 0.1 mm 7 mps 740 mmHg 74%
    02:00 +13°C° 0.1 mm 8 mps 740 mmHg 74%
    03:00 +13°C° 0.1 mm 8 mps 740 mmHg 74%
    04:00 +13°C° 0.1 mm 8 mps 740 mmHg 73%
    05:00 +13°C° 0.1 mm 8 mps 741 mmHg 73%
    06:00 +13°C° 0.1 mm 8 mps 741 mmHg 73%
    07:00 +13°C° 0.2 mm 9 mps 741 mmHg 70%
    08:00 +15°C° 0.2 mm 9 mps 742 mmHg 67%
    09:00 +14°C° 0.2 mm 10 mps 743 mmHg 65%
    10:00 +16°C° 0 mm 10 mps 743 mmHg 62%
    11:00 +16°C° 0 mm 9 mps 743 mmHg 59%
    12:00 +16°C° 0 mm 9 mps 743 mmHg 56%
    13:00 +16°C° 0 mm 9 mps 743 mmHg 58%
    14:00 +16°C° 0 mm 8 mps 743 mmHg 60%
    15:00 +16°C° 0 mm 7 mps 743 mmHg 62%
    16:00 +15°C° 0 mm 7 mps 744 mmHg 64%
    17:00 +15°C° 0 mm 8 mps 744 mmHg 66%
    18:00 +13°C° 0 mm 8 mps 744 mmHg 69%
    19:00 +13°C° 0 mm 8 mps 745 mmHg 66%
    20:00 +13°C° 0 mm 8 mps 746 mmHg 64%
    21:00 +13°C° 0 mm 8 mps 746 mmHg 62%
    22:00 +14°C° 0 mm 7 mps 746 mmHg 65%
    23:00 +13°C° 0 mm 6 mps 747 mmHg 67%

    22 November, Thursday

    Time Temperature Precipitation Wind Pressure Humidity
    00:00 +13°C° 0 mm 6 mps 747 mmHg 70%
    01:00 +13°C° 0 mm 5 mps 747 mmHg 69%
    02:00 +12°C° 0 mm 4 mps 747 mmHg 69%
    03:00 +12°C° 0 mm 3 mps 747 mmHg 68%
    04:00 +12°C° 0 mm 3 mps 747 mmHg 69%
    05:00 +12°C° 0 mm 3 mps 748 mmHg 69%
    06:00 +12°C° 0 mm 3 mps 748 mmHg 70%
    07:00 +13°C° 0 mm 3 mps 748 mmHg 67%
    08:00 +14°C° 0 mm 3 mps 749 mmHg 65%
    09:00 +16°C° 0 mm 3 mps 749 mmHg 63%
    10:00 +16°C° 0 mm 3 mps 749 mmHg 62%
    11:00 +17°C° 0 mm 3 mps 749 mmHg 61%
    12:00 +17°C° 0 mm 3 mps 749 mmHg 60%
    13:00 +17°C° 0 mm 3 mps 749 mmHg 64%
    14:00 +17°C° 0 mm 3 mps 749 mmHg 67%
    15:00 +16°C° 0 mm 3 mps 749 mmHg 70%
    16:00 +16°C° 0.5 mm 3 mps 749 mmHg 74%
    17:00 +14°C° 0.5 mm 3 mps 749 mmHg 78%
    18:00 +14°C° 0.5 mm 4 mps 749 mmHg 82%
    19:00 +13°C° 0.3 mm 4 mps 750 mmHg 83%
    20:00 +13°C° 0.3 mm 4 mps 750 mmHg 84%
    21:00 +13°C° 0.3 mm 4 mps 750 mmHg 85%
    22:00 +13°C° 0.2 mm 3 mps 750 mmHg 85%
    23:00 +13°C° 0.2 mm 3 mps 750 mmHg 86%
    Show more